Weather History for Midland, TX

Change the Weather History Date:

Wednesday, April 25, 2012

  Actual Average Record
Temperature  
Mean Temperature 86 °F 67 °F  
Max Temperature 104 °F 82 °F 104 °F (2012)
Min Temperature 67 °F 53 °F 39 °F (1937)
Degree Days  
Heating Degree Days 0 2  
Month to date heating degree days 20 103  
Since 1 July heating degree days 2296 2647  
Cooling Degree Days 21 4  
Month to date cooling degree days 163 65  
Year to date cooling degree days 240 83  
Growing Degree Days 35 (Base 50)    
Moisture  
Dew Point 33 °F    
Average Humidity 27    
Maximum Humidity 49    
Minimum Humidity 5    
Precipitation  
Precipitation 0.00 in 0.02 in 0.85 in (1941)
Month to date precipitation 0.05 0.53  
Year to date precipitation 1.35 2.40  
Snow  
Snow 0.00 in - - ()
Month to date snowfall 0.0  
Since 1 July snowfall 19.5  
Snow Depth 0.00 in    
Sea Level Pressure  
Sea Level Pressure 29.71 in    
Wind  
Wind Speed 11 mph (WSW)    
Max Wind Speed 24 mph    
Max Gust Speed 33 mph    
Visibility 10 miles    
Events      
T = Trace of Precipitation, MM = Missing Value Source: NWS Daily Summary

Daily Weather History Graph

Daily Weather History Graph

Search for Another Location

Airport:

Trip Planner

Search our weather history database for the weather conditions in past years. The results will help you decide how hot, cold, wet, or windy it might be!

Date:

Astronomy

Apr. 25, 2012 Rise Set
Actual Time 7:08 AM CDT 8:25 PM CDT
Civil Twilight 6:42 AM CDT 8:51 PM CDT
Nautical Twilight 6:12 AM CDT 9:21 PM CDT
Astronomical Twilight 5:40 AM CDT 9:53 PM CDT
Moon 10:04 AM CDT (4/25) No Moon Set
Length of Visible Light 14h 08m
Length of Day
13h 17m
Waxing Crescent, 17% of the Moon is Illuminated
Apr 25
Waxing Crescent
Apr 29
First Quarter
May 5
Full
May 12
Last Quarter
May 20
New

Hourly Weather History & Observations

Time (CDT) Temp. Dew Point Humidity Pressure Visibility Wind Dir Wind Speed Gust Speed Precip Events Conditions
12:53 AM 75.9 °F 48.9 °F 38% 29.74 in 10.0 mi South 13.8 mph - N/A   Clear
1:53 AM 73.9 °F 48.0 °F 40% 29.75 in 10.0 mi South 12.7 mph - N/A   Clear
2:53 AM 72.0 °F 46.9 °F 41% 29.73 in 10.0 mi SSW 11.5 mph - N/A   Clear
3:53 AM 72.0 °F 46.0 °F 40% 29.73 in 10.0 mi South 8.1 mph - N/A   Clear
4:53 AM 69.1 °F 46.0 °F 44% 29.73 in 10.0 mi SW 9.2 mph - N/A   Clear
5:53 AM 68.0 °F 46.0 °F 45% 29.73 in 10.0 mi SSW 11.5 mph - N/A   Clear
6:53 AM 66.9 °F 46.0 °F 47% 29.73 in 10.0 mi SSW 9.2 mph - N/A   Clear
7:53 AM 68.0 °F 48.0 °F 49% 29.75 in 10.0 mi SSW 9.2 mph - N/A   Clear
8:53 AM 73.9 °F 48.0 °F 40% 29.75 in 10.0 mi SSW 12.7 mph - N/A   Clear
9:53 AM 82.9 °F 44.1 °F 25% 29.75 in 10.0 mi WSW 13.8 mph - N/A   Clear
10:53 AM 91.0 °F 37.9 °F 15% 29.73 in 10.0 mi WSW 16.1 mph - N/A   Clear
11:53 AM 96.1 °F 28.9 °F 9% 29.73 in 10.0 mi West 13.8 mph 20.7 mph N/A   Clear
12:53 PM 99.0 °F 26.1 °F 8% 29.71 in 10.0 mi West 11.5 mph 19.6 mph N/A   Clear
1:53 PM 100.4 °F 24.8 °F 7% 29.85 in 10.0 mi West 18.4 mph 24.2 mph N/A   Clear
2:53 PM 102.0 °F 23.0 °F 6% 29.68 in 10.0 mi WNW 13.8 mph 27.6 mph N/A   Clear
3:53 PM 102.9 °F 19.9 °F 5% 29.65 in 10.0 mi WNW 11.5 mph 20.7 mph N/A   Clear
4:53 PM 102.0 °F 19.0 °F 5% 29.64 in 10.0 mi West 17.3 mph 21.9 mph N/A   Partly Cloudy
5:11 PM 102.2 °F 19.4 °F 5% 29.80 in 10.0 mi West 11.5 mph 23.0 mph N/A   Clear
5:53 PM 100.9 °F 18.0 °F 5% 29.64 in 10.0 mi West 11.5 mph 23.0 mph N/A   Clear
6:53 PM 98.1 °F 17.1 °F 5% 29.64 in 10.0 mi West 6.9 mph - N/A   Clear
7:53 PM 93.9 °F 21.0 °F 7% 29.64 in 10.0 mi WSW 5.8 mph - N/A   Clear
8:53 PM 84.9 °F 21.0 °F 10% 29.66 in 10.0 mi WSW 6.9 mph - N/A   Clear
9:53 PM 82.9 °F 21.9 °F 11% 29.68 in 10.0 mi WSW 6.9 mph - N/A   Clear
10:53 PM 80.1 °F 21.0 °F 11% 29.69 in 10.0 mi SW 8.1 mph - N/A   Clear
11:53 PM 82.9 °F 44.1 °F 25% 29.69 in 10.0 mi SSW 13.8 mph - N/A   Clear